Weather History for Casper, WY

Change the Weather History Date:

Monday, January 30, 2012

  Actual Average Record
Temperature  
Mean Temperature 37 °F 25 °F  
Max Temperature 45 °F 35 °F 60 °F (1971)
Min Temperature 28 °F 14 °F -26 °F (1985)
Degree Days  
Heating Degree Days 28 40  
Month to date heating degree days 1107 1205  
Since 1 July heating degree days 4007 4334  
Cooling Degree Days 0 0  
Month to date cooling degree days 0 0  
Year to date cooling degree days 0 0  
Moisture  
Dew Point 18 °F    
Average Humidity 48    
Maximum Humidity 59    
Minimum Humidity 37    
Precipitation  
Precipitation 0.00 in 0.01 in 0.17 in (1943)
Month to date precipitation 0.67 0.49  
Year to date precipitation 0.67 0.49  
Snow  
Snow 0.00 in 0.30 in - ()
Month to date snowfall 9.1 8.8  
Since 1 July snowfall 35.8 39.3  
Snow Depth 0.00 in    
Sea Level Pressure  
Sea Level Pressure 29.83 in    
Wind  
Wind Speed 22 mph (SW)    
Max Wind Speed 32 mph    
Max Gust Speed 45 mph    
Visibility 10 miles    
Events      
T = Trace of Precipitation, MM = Missing Value Source: NWS Daily Summary

Daily Weather History Graph

Daily Weather History Graph

Search for Another Location

Airport:

Trip Planner

Search our weather history database for the weather conditions in past years. The results will help you decide how hot, cold, wet, or windy it might be!

Date:

Astronomy

Jan. 30, 2012 Rise Set
Actual Time 7:23 AM MST 5:15 PM MST
Civil Twilight 6:52 AM MST 5:45 PM MST
Nautical Twilight 6:18 AM MST 6:19 PM MST
Astronomical Twilight 5:45 AM MST 6:53 PM MST
Moon 10:34 AM MST (1/30) 12:14 AM MST (1/30)
Length of Visible Light 10h 52m
Length of Day
9h 52m
Waxing Crescent, 46% of the Moon is Illuminated
Jan 30
Waxing Crescent
Jan 30
First Quarter
Feb 7
Full
Feb 14
Last Quarter
Feb 21
New

Hourly Weather History & Observations

Time (MST) Temp. Windchill Dew Point Humidity Pressure Visibility Wind Dir Wind Speed Gust Speed Precip Events Conditions
12:53 AM 36.0 °F 24.4 °F 16.0 °F 44% 29.94 in 10.0 mi SSW 23.0 mph 28.8 mph N/A   Clear
1:53 AM 35.1 °F 22.0 °F 17.1 °F 48% 29.89 in 10.0 mi SW 28.8 mph 36.8 mph N/A   Clear
2:53 AM 35.1 °F 23.8 °F 16.0 °F 46% 29.88 in 10.0 mi SSW 20.7 mph 32.2 mph N/A   Clear
3:53 AM 34.0 °F 22.1 °F 15.1 °F 46% 29.86 in 10.0 mi SSW 21.9 mph 31.1 mph N/A   Clear
4:53 AM 33.1 °F 21.5 °F 15.1 °F 48% 29.84 in 10.0 mi SW 19.6 mph - N/A   Clear
5:53 AM 34.0 °F 22.1 °F 15.1 °F 46% 29.83 in 10.0 mi SW 21.9 mph - N/A   Clear
6:53 AM 34.0 °F 23.4 °F 14.0 °F 44% 29.83 in 10.0 mi WSW 17.3 mph - N/A   Clear
7:53 AM 35.1 °F 23.0 °F 15.1 °F 44% 29.82 in 10.0 mi SW 24.2 mph 36.8 mph N/A   Clear
8:53 AM 35.1 °F 23.5 °F 16.0 °F 46% 29.83 in 10.0 mi SW 21.9 mph 31.1 mph N/A   Clear
9:53 AM 35.6 °F - 15.8 °F 44% 29.80 in 10.0 mi North - - N/A   Clear
10:53 AM 37.9 °F 25.5 °F 16.0 °F 41% 29.80 in 10.0 mi SW 31.1 mph 38.0 mph N/A   Clear
11:53 AM 41.0 °F 29.5 °F 17.6 °F 39% 29.78 in 10.0 mi SW 32.2 mph 41.4 mph N/A   Clear
12:53 PM 45.0 °F 35.2 °F 19.0 °F 36% 29.72 in 10.0 mi WSW 29.9 mph 40.3 mph N/A   Clear
1:53 PM 44.1 °F 34.4 °F 21.0 °F 40% 29.74 in 10.0 mi WSW 27.6 mph 36.8 mph N/A   Clear
2:53 PM 44.1 °F 34.8 °F 21.9 °F 42% 29.75 in 10.0 mi WSW 25.3 mph 35.7 mph N/A   Clear
3:53 PM 43.0 °F 32.5 °F 21.9 °F 43% 29.76 in 10.0 mi WSW 29.9 mph 39.1 mph N/A   Clear
4:53 PM 39.0 °F 29.0 °F 21.9 °F 50% 29.81 in 10.0 mi WSW 20.7 mph 28.8 mph N/A   Clear
5:53 PM 37.0 °F 28.1 °F 23.0 °F 57% 29.83 in 10.0 mi WSW 15.0 mph - N/A   Clear
6:53 PM 37.0 °F 27.4 °F 24.1 °F 59% 29.84 in 10.0 mi SW 17.3 mph - N/A   Clear
7:53 PM 36.0 °F 25.3 °F 21.0 °F 55% 29.86 in 10.0 mi West 19.6 mph 28.8 mph N/A   Clear
8:53 PM 33.1 °F 20.9 °F 19.9 °F 59% 29.88 in 10.0 mi WSW 21.9 mph - N/A   Clear
9:53 PM 30.9 °F 19.1 °F 17.1 °F 57% 29.88 in 10.0 mi WSW 18.4 mph - N/A   Clear
10:53 PM 28.0 °F 19.3 °F 16.0 °F 61% 29.91 in 10.0 mi WSW 9.2 mph - N/A   Clear
11:53 PM 30.0 °F 22.4 °F 14.0 °F 51% 29.92 in 10.0 mi West 8.1 mph - N/A   Clear